Weather History for Port Angeles, WA

Change the Weather History Date:

Sunday, July 21, 2013

  Actual Average Record
Temperature  
Mean Temperature 60 °F -  
Max Temperature 66 °F 70 °F 91 °F (2006)
Min Temperature 53 °F 52 °F 43 °F (1951)
Degree Days  
Heating Degree Days 6    
Growing Degree Days 10 (Base 50)    
Moisture  
Dew Point 53 °F    
Average Humidity 86    
Maximum Humidity 96    
Minimum Humidity 68    
Precipitation  
Precipitation 0.00 in - - ()
Sea Level Pressure  
Sea Level Pressure 29.97 in    
Wind  
Wind Speed 8 mph (NW)    
Max Wind Speed 13 mph    
Max Gust Speed -    
Visibility 10 miles    
Events      
Averages and records for this station are not official NWS values.
T = Trace of Precipitation, MM = Missing Value Source: NWS Daily Summary

Daily Weather History Graph

Daily Weather History Graph

Search for Another Location

Airport:

Trip Planner

Search our weather history database for the weather conditions in past years. The results will help you decide how hot, cold, wet, or windy it might be!

Date:

Astronomy

Jul. 21, 2013 Rise Set
Actual Time 5:36 AM PDT 9:03 PM PDT
Civil Twilight 4:58 AM PDT 9:41 PM PDT
Nautical Twilight 4:07 AM PDT 10:32 PM PDT
Astronomical Twilight 2:59 AM PDT 11:39 PM PDT
Moon 8:02 PM PDT (7/21) 4:31 AM PDT (7/21)
Length of Visible Light 16h 43m
Length of Day
15h 26m
Waxing Gibbous, 99% of the Moon is Illuminated
Jul 21
Waxing Gibbous
Jul 22
Full
Jul 29
Last Quarter
Aug 6
New
Aug 14
First Quarter

Hourly Weather History & Observations

Time (PDT) Temp. Dew Point Humidity Pressure Visibility Wind Dir Wind Speed Gust Speed Precip Events Conditions
12:53 AM 54.0 °F 52.0 °F 93% 29.99 in 10.0 mi WNW 12.7 mph - N/A   Overcast
1:53 AM 54.0 °F 52.0 °F 93% 29.98 in 10.0 mi NW 8.1 mph - N/A   Overcast
2:53 AM 54.0 °F 52.0 °F 93% 29.98 in 10.0 mi WNW 8.1 mph - N/A   Overcast
3:53 AM 54.0 °F 52.0 °F 93% 29.97 in 10.0 mi WNW 8.1 mph - N/A   Overcast
4:53 AM 54.0 °F 52.0 °F 93% 29.97 in 10.0 mi WNW 8.1 mph - N/A   Overcast
5:53 AM 53.1 °F 52.0 °F 96% 29.97 in 10.0 mi West 6.9 mph - N/A   Overcast
6:53 AM 54.0 °F 52.0 °F 93% 29.98 in 10.0 mi WNW 5.8 mph - N/A   Overcast
7:53 AM 54.0 °F 52.0 °F 93% 29.99 in 10.0 mi West 3.5 mph - N/A   Overcast
8:53 AM 55.0 °F 52.0 °F 89% 29.99 in 10.0 mi SW 3.5 mph - N/A   Overcast
9:08 AM 55.9 °F 52.0 °F 87% 29.98 in 10.0 mi SW 3.5 mph - N/A   Overcast
9:53 AM 57.9 °F 52.0 °F 81% 29.98 in 10.0 mi North 5.8 mph - N/A   Overcast
10:20 AM 57.9 °F 53.1 °F 84% 29.98 in 10.0 mi North 5.8 mph - N/A   Scattered Clouds
10:53 AM 57.9 °F 52.0 °F 81% 29.99 in 10.0 mi North 8.1 mph - N/A   Partly Cloudy
11:53 AM 60.1 °F 53.1 °F 78% 29.98 in 10.0 mi NNE 6.9 mph - N/A   Clear
12:53 PM 61.0 °F 53.1 °F 75% 29.97 in 10.0 mi North 6.9 mph - N/A   Clear
1:53 PM 61.0 °F 54.0 °F 78% 29.98 in 10.0 mi North 6.9 mph - N/A   Clear
2:53 PM 63.0 °F 53.1 °F 70% 29.97 in 10.0 mi North 6.9 mph - N/A   Clear
3:53 PM 64.9 °F 55.0 °F 70% 29.97 in 10.0 mi NW 6.9 mph - N/A   Clear
4:53 PM 66.0 °F 55.0 °F 68% 29.96 in 10.0 mi NW 6.9 mph - N/A   Clear
5:53 PM 63.0 °F 55.0 °F 75% 29.95 in 10.0 mi NW 8.1 mph - N/A   Clear
6:53 PM 60.1 °F 54.0 °F 80% 29.94 in 10.0 mi NW 9.2 mph - N/A   Clear
7:53 PM 57.9 °F 54.0 °F 87% 29.94 in 10.0 mi WNW 9.2 mph - N/A   Clear
8:00 PM 57.0 °F 54.0 °F 89% 29.94 in 10.0 mi WNW 9.2 mph - N/A   Scattered Clouds
8:16 PM 57.0 °F 54.0 °F 89% 29.94 in 10.0 mi NW 8.1 mph - N/A   Mostly Cloudy
8:53 PM 55.9 °F 53.1 °F 90% 29.95 in 10.0 mi WNW 9.2 mph - N/A   Overcast
9:14 PM 55.9 °F 53.1 °F 90% 29.95 in 10.0 mi WNW 10.4 mph - N/A   Overcast
9:53 PM 55.0 °F 53.1 °F 93% 29.96 in 10.0 mi WNW 8.1 mph - N/A   Overcast
10:53 PM 55.0 °F 53.1 °F 93% 29.96 in 10.0 mi NW 8.1 mph - N/A   Overcast
11:53 PM 55.0 °F 53.1 °F 93% 29.96 in 10.0 mi WNW 10.4 mph - N/A   Overcast